Voltar ao catálogo

COSMOS 2491 DEB

AtivoPO
NORAD 45172·DEBRIS·🇷🇺 Russia

Lançado Dec 25, 2013 de Plesetsk Cosmodrome

Loading…

Próximas Passagens (próximas 24 horas)

TLE

AtualizadoSource: Space-Track

Época: Sep 11, 2026, 16:34 UTC

1 45172U 13076AD  26254.69063428  .00001516  00000-0  74462-2 0  9991
2 45172  82.4589  53.4170 0132100 298.9373  59.8526 12.68913526305258

Acompanhe COSMOS 2491 DEB em tempo real com AllMySat

Download on the App Store